Location: Lynch Observatory
(39.9540°N, 75.1861°W)
Time: 10:24:56
(UTC-04:00)

CAS-4B - Pass Details

Date: 22 April 2024
Orbit: 474 x 492 km, 43.0° (Epoch: 26 May)

Event Time Altitude Azimuth Distance (km) Brightness Sun altitude
Exits shadow 04:10:09 56° 321° (NW) 583 ? -21.4°
Drops below altitude 10° 04:14:18 10° 71° (ENE) 1,675 ? -20.8°
Enters shadow 05:10:23 -71° 267° (W) 12,557 ? -11.8°
Maximum altitude 05:49:50 58° 8° (N) 577 ? -4.9°
Sets 05:55:51 0° 93° (E) 2,567 ? -3.8°
